Location: Unspecified
(40.7945°N, 111.1337°W)
Time: 12:24:17
(UTC-06:00)

Vanguard 1 - Pass Details

Date: 30 June 2019
Orbit: 654 x 3829 km, 34.2° (Epoch: 25 August)

Event Time Altitude Azimuth Distance (km) Brightness Sun altitude
Rises 01:52:42 0° 238° (WSW) 7,878 14.3 -25.8°
Reaches altitude 10° 01:58:07 10° 235° (SW) 6,922 14.0 -25.6°
Maximum altitude 02:20:40 60° 163° (SSE) 3,598 12.5 -24.9°
Drops below altitude 10° 02:35:51 10° 88° (E) 4,913 13.8 -24.1°
Sets 02:38:57 0° 85° (E) 5,575 14.2 -23.9°
